Tracking 18793 objects as of 22-September-2017
HD Live streaming from Space Station
objects crossing your sky now

ATLAS CENTAUR R/B

Track ATLAS CENTAUR R/B now!


NORAD ID: 10976
Int'l Code: 1978-068B
Perigee: 618.0 km
Apogee: 36,237.0 km
Inclination: 21.2 °
Period: 647.7 minutes
Semi major axis: 24798 km
RCS: 16.8333 m2 (large)
Launch date: June 29, 1978
Source: United States (US)
Launch site: AIR FORCE EASTERN TEST RANGE (AFETR)

Note: This is a ROCKET BODY
aabbcc
Your satellite tracking list
Your tracking list is empty





NASA's NSSDC Master Catalog

Two Line Element Set (TLE):
1 10976U 78068B   17264.12175215 -.00000053 +00000-0 -85829-4 0  9992
2 10976 021.2474 168.0752 7181696 319.0864 229.6774 02.22312894315215
Source of the keplerian elements: AFSPC